Location: Unspecified
(0.0000°N, 0.0000°E)
Time: 05:17:44
(UTC+00:00)

Vanguard 3 - Pass Details

Date: 21 April 2021
Orbit: 507 x 3262 km, 33.4° (Epoch: 17 May)

Event Time Altitude Azimuth Distance (km) Brightness Sun altitude
Rises 20:38:10 0° 235° (SW) 6,961 12.3 -38.8°
Reaches altitude 10° 20:43:17 10° 235° (SW) 5,675 11.8 -40.1°
Enters shadow 20:58:00 75° 249° (WSW) 2,078 9.0 -43.6°
